National Weather Service Hourly Weather Roundup
NOAA NWS Hourly Roundups by Site
NOAA NWS Hourly Roundups by Site
Regional Weather Roundup for Sacramento, CA

To Select Another Site Choose from List

Select Site:  

712
ASUS46 KSTO 292215
RWRCA

NORTHERN AND CENTRAL CA REGIONAL WEATHER ROUNDUP
NATIONAL WEATHER SERVICE SACRAMENTO CA
200 PM PST SUN NOV 29 2020

NOTE: FAIR INDICATES FEW OR NO CLOUDS BELOW 12,000 FEET WITH NO
SIGNIFICANT WEATHER AND/OR OBSTRUCTIONS TO VISIBILITY.

CAZ001-003-292300-
NORTHWEST AREA

CITY           SKY/WX    TMP DP  RH WIND       PRES   REMARKS
CRESCENT CITY  SUNNY     53  37  54 S7        30.18F
UKIAH          SUNNY     63  29  27 CALM      30.15F
$$

CAZ006-505>513-292300-
BAY AREA

CITY           SKY/WX    TMP DP  RH WIND       PRES   REMARKS
SANTA ROSA     MOSUNNY   65  33  30 SE5       30.15F
SAN RAFAEL     N/A       MM  MM  MM MISG
NAPA           SUNNY     67  32  27 E10       30.16F
CONCORD        SUNNY     64  32  30 E8        30.16F
OAKLAND CITY   N/A       60  MM  MM MISG
OAKLAND        MOSUNNY   61  37  41 W8        30.17F
SAN FRAN CITY  N/A       61  MM  37 MISG
SAN FRAN ARPT  MOSUNNY   59  43  55 CALM      30.15F
LIVERMORE      SUNNY     65  25  22 E13       30.15F
HAYWARD        SUNNY     62  40  44 NW7       30.15F
SAN JOSE ARPT  MOSUNNY   64  27  24 VRB5      30.14F
$$
CAZ034-037-514>518-292300-
CENTRAL COAST

CITY           SKY/WX    TMP DP  RH WIND       PRES   REMARKS
WATSONVILLE    SUNNY     71  30  21 VRB6      30.12F
SALINAS        SUNNY     73  26  17 VRB5      30.11F
MONTEREY       SUNNY     59  38  45 VRB6      30.14S
SANTA MARIA    MOSUNNY   68  39  34 W10       30.09S
HALF MOON BAY  FAIR      59  37  44 W3        30.15F
$$
CAZ015-016-292300-
NORTHERN SACRAMENTO VALLEY

CITY           SKY/WX    TMP DP  RH WIND       PRES   REMARKS
REDDING        MOSUNNY   62  31  31 CALM      30.14F
RED BLUFF      MOSUNNY   63  28  26 VRB5      30.16F
OROVILLE       MOSUNNY   60  38  43 VRB3      30.18F
$$
CAZ016>018-292300-
SOUTHERN SACRAMENTO VALLEY

CITY           SKY/WX    TMP DP  RH WIND       PRES   REMARKS
AUBURN         SUNNY     61  30  31 CALM      30.16F
BEALE AFB      MOSUNNY   60  35  39 SW7       30.16F
LINCOLN        FAIR      61  32  33 W3        30.16F
MARYSVILLE     MOSUNNY   61  33  35 SW5       30.18F
SAC INTL ARPT  MOSUNNY   61  34  36 CALM      30.17F
MATHER AIRPORT NOT AVBL
DOWNTOWN SAC   N/A       63  MM  MM MISG
SAC EXEC ARPT  MOSUNNY   62  34  35 CALM      30.17F
VACAVILLE      SUNNY     65  30  27 N6        30.18F
TRAVIS AFB     SUNNY     67  35  31 NE3       30.17F
$$
CAZ019>021-292300-
SAN JOAQUIN VALLEY

CITY           SKY/WX    TMP DP  RH WIND       PRES   REMARKS
STOCKTON       SUNNY     65  33  30 NW3       30.16F
MODESTO        SUNNY     63  32  31 CALM      30.16F
MERCED         SUNNY     63  32  31 CALM      30.16F
LEMOORE        SUNNY     65  31  28 CALM      30.17F
FRESNO         MOSUNNY   65  24  21 CALM      30.16F
HANFORD        SUNNY     65  32  29 VRB3      30.17F
PORTERVILLE    SUNNY     65  34  31 NW7       30.16F
BAKERSFIELD    SUNNY     63  31  30 SW3       30.15F
$$
CAZ011-012-071-292300-
NORTHERN MOUNTAINS

CITY           SKY/WX    TMP DP  RH WIND       PRES   REMARKS
YREKA          MOSUNNY   46  30  53 CALM      30.22F
MOUNT SHASTA   MOSUNNY   53  29  39 CALM      30.17F
ALTURAS        MOSUNNY   56  19  23 S10       30.20F
$$
CAZ011-012-071-292300-
SIERRA NEVADA MTNS

CITY           SKY/WX    TMP DP  RH WIND       PRES   REMARKS
BLUE CANYON    SUNNY     53  23  31 SW6       30.24S
TRUCKEE        SUNNY     48  21  34 CALM      30.24F
TAHOE VLY ARPT SUNNY     49  21  33 NE5       30.24F
MAMMOTH LAKES  FAIR      52   3  14 SE6       30.28F
$$



 

View Past Reports for Sacramento, CA.

Products Courtesy of NOAA-NWS
NWS Information Parsing Script by Ken True at Saratoga Weather - Script by SE Lincoln Weather.

powered by Cumulus v1.9.3 (1059)
Ambient Weather VWS v14.00
Top Website Map Copyright © 2007 - 2020 Foresthillweather.com Never base important decisions on this or any weather information obtained from the Internet